{"data":{"norad_id":51740,"intl_designator":"2022-016AC","name":"STARLINK-3500","alt_names":[],"object_type":"PAYLOAD","status":"ACTIVE","operator":null,"country":"US","launch_date":"2022-02-21","launch_site_code":"AFETR","launch_vehicle":null,"mission":null,"orbit_class":"UNKNOWN","rcs_meters":null,"size_class":null,"mass_kg":null,"dimensions":null,"purposes":["comms"],"wikipedia_slug":null,"has_3d_model":false,"image_url":null,"decayed_at":null,"tle_current":{"epoch":"2026-09-20T01:41:02.649120Z","epoch_age_seconds":88797,"freshness":"FRESH","line1":"1 51740U 22016AC  26263.07016955  .00000326  00000+0  20797-4 0  9999","line2":"2 51740  53.1606 151.3924 0001178  95.2451 264.8686 15.34387086253115","mean_motion":15.34387086,"eccentricity":0.0001178,"inclination_deg":53.1606,"raan_deg":151.3924,"arg_perigee_deg":95.2451,"mean_anomaly_deg":264.8686,"bstar":2.0797e-5,"rev_number":25311,"period_min":93.84854794066,"perigee_km":461.93576810395,"apogee_km":463.54747910767,"semimajor_km":6840.8786236058,"source":"CELESTRAK","updated_at":"2026-09-20T09:00:39.931181Z"}}}